This demonstration page uses our WeatherBlox Daily Observations layout. Learn more.

Left ArrowRight Arrow

40.97296, -117.73568

Hourly Observations for March 17, 2016

Temp ( °F °C ) Dew Point ( °F °C ) Humidity (%) Winds ( mph kmh ) Pressure ( in mb ) Visibility ( mi km ) Precip ( " mm )
12:56 am 00:56 Clear 29 -1.7 25 -3.9 85 85 SSE 7 11 30.13 1020 10 16 0.00 0.00
1:56 am 01:56 Clear 26 -3.3 23 -5 88 88 ESE 5 7 30.13 1020 10 16 0.00 0.00
2:56 am 02:56 Clear 24 -4.4 22 -5.6 91 91 SE 7 11 30.12 1020 10 16 0.00 0.00
3:56 am 03:56 Clear 23 -5 21 -6.1 92 92 SSE 3 6 30.12 1020 10 16 0.00 0.00
4:56 am 04:56 Clear 24 -4.4 21 -6.1 88 88 SSE 8 13 30.12 1020 10 16 0.00 0.00
5:56 am 05:56 Clear 23 -5 21 -6.1 92 92 VRB 6 9 30.11 1020 10 16 0.00 0.00
6:56 am 06:56 Clear 23 -5 20 -6.7 88 88 Calm 30.14 1021 10 16 0.00 0.00
7:56 am 07:56 Sunny 30 -1.1 26 -3.3 85 85 Calm 30.15 1021 10 16 0.00 0.00
8:56 am 08:56 Sunny 39 3.9 29 -1.7 67 67 Calm 30.15 1021 10 16 0.00 0.00
9:56 am 09:56 Sunny 45 7.2 30 -1.1 56 56 Calm 30.14 1021 10 16 0.00 0.00
10:56 am 10:56 Sunny 50 10 30 -1.1 46 46 Calm 30.13 1020 10 16 0.00 0.00
11:56 am 11:56 Sunny 54 12.2 30 -1.1 40 40 Calm 30.10 1019 10 16 0.00 0.00
12:56 pm 12:56 Sunny 57 13.9 30 -1.1 36 36 N 8 13 30.09 1019 10 16 0.00 0.00
1:56 pm 13:56 Sunny 57 13.9 28 -2.2 33 33 VRB 3 6 30.07 1018 10 16 0.00 0.00
2:56 pm 14:56 Sunny 60 15.6 28 -2.2 30 30 VRB 3 6 30.06 1018 10 16 0.00 0.00
3:56 pm 15:56 Sunny 60 15.6 28 -2.2 30 30 W 7 11 30.04 1017 10 16 0.00 0.00
4:56 pm 16:56 Sunny 60 15.6 18 -7.8 19 19 NW 13 20 30.04 1017 10 16 0.00 0.00
5:56 pm 17:56 Sunny 59 15 22 -5.6 24 24 N 8 13 30.03 1017 10 16 0.00 0.00
6:56 pm 18:56 Sunny 54 12.2 25 -3.9 33 33 N 7 11 30.04 1017 10 16 0.00 0.00
7:56 pm 19:56 Clear 45 7.2 26 -3.3 48 48 ENE 6 9 30.04 1017 10 16 0.00 0.00
8:56 pm 20:56 Clear 37 2.8 24 -4.4 59 59 WSW 3 6 30.05 1018 10 16 0.00 0.00
9:56 pm 21:56 Clear 40 4.4 27 -2.8 60 60 N 5 7 30.03 1017 10 16 0.00 0.00
10:56 pm 22:56 Clear 35 1.7 26 -3.3 70 70 E 5 7 30.06 1018 10 16 0.00 0.00
11:56 pm 23:56 Clear 43 6.1 29 -1.7 58 58 NE 12 19 30.03 1017 10 16 0.00 0.00

Powered by AerisWeather